Location: *
(51.1248°S, 108.4023°W)
Time: 05:30:29
(UTC+00:00)

Envisat - Pass Details

Date: 28 September 2021
Orbit: 764 x 766 km, 98.2° (Epoch: 17 October)

Event Time Altitude Azimuth Distance (km) Brightness Sun altitude
Rises 02:52:00 0° 179° (S) 3,280 6.6 -14.8°
Reaches altitude 10° 02:56:29 10° 216° (SW) 2,344 6.4 -15.5°
Maximum altitude 02:57:31 11° 227° (SW) 2,300 6.6 -15.6°
Drops below altitude 10° 02:58:33 10° 239° (WSW) 2,339 6.9 -15.8°
Sets 03:03:01 0° 276° (W) 3,256 7.3 -16.4°
